Regional Weather Roundup
Issued by NWS

Home | Current Version | Previous Version | Text Only | Print | Product List | Glossary On
Versions: 1 2 3 4 5 6 7 8 9 10 11 12 13 14 15 16 17 18 19 20 21 22 23 24 25 26 27
000
ASUS45 KCYS 261710
RWRWY

WYOMING REGIONAL WEATHER ROUNDUP
NATIONAL WEATHER SERVICE CHEYENNE WY
1000 AM MST SUN FEB 26 2017

NOTE:  "FAIR" INDICATES FEW OR NO CLOUDS BELOW 12,000 FEET
WITH NO SIGNIFICANT WEATHER AND/OR OBSTRUCTIONS TO VISIBILITY.

WYZ001-261800-
YELLOWSTONE NATIONAL PARK

CITY           SKY/WX    TMP DP  RH WIND       PRES   REMARKS
LK YELLOWSTONE   N/A     11   3  70 VRB5      29.70F WCI   3
W YELLOWSTONE  NOT AVBL

$$
WYZ002>013-054>058-071-098>099-261800-
NORTHERN WYOMING

CITY           SKY/WX    TMP DP  RH WIND       PRES   REMARKS
JACKSON        FLURRIES  16  30 100 S10       29.78F WCI   3
CODY           FAIR      28   3  34 W12G18    29.73F WCI  18
GREYBULL       FAIR      25  12  58 S9        29.79R WCI  15
WORLAND        FAIR      22   9  57 CALM      29.79S
SHERIDAN       FAIR      31  11  43 SE9       29.75R WCI  23
BUFFALO        FAIR      25   8  48 S3        29.73R
GILLETTE       FAIR      27  10  49 SW9       29.75R WCI  18
HULETT         FAIR      30  12  47 SW8       29.75S WCI  23
NEWCASTLE      FAIR      18   7  62 S6        29.81R WCI   9

$$
WYZ014>020-022>026-101>103-261800-
CENTRAL WYOMING

CITY           SKY/WX    TMP DP  RH WIND       PRES   REMARKS
BIG PINEY      FAIR      -3  -7  82 NE3       29.81S
PINEDALE       FAIR       1  -4  78 CALM      29.81S
DUBOIS         FAIR      14   1  57 NW16      29.69F WCI  -2
LANDER         FAIR      12  -1  56 CALM      29.75S
RIVERTON       FAIR      17   2  51 W8        29.75R WCI   7
CASPER         FAIR      17   4  56 SW18G28   29.79R WCI   1
DOUGLAS        FAIR      20   4  50 N3        29.80R

$$
WYZ021-027>030-104>119-261800-
SOUTHERN WYOMING

CITY           SKY/WX    TMP DP  RH WIND       PRES   REMARKS
EVANSTON       FAIR      10   6  84 SW9       29.82S WCI  -3
FORT BRIDGER   FAIR      15   4  61 SW14      29.85S WCI   1
ROCK SPRINGS   PTSUNNY   12   4  70 SW13      29.84S HAZE    WCI  -3
DIXON            N/A     16   6  64 CALM      29.92S
RAWLINS        FAIR      16   4  59 SW21G30   29.82R WCI  -1
SARATOGA       FAIR      19   5  53 SW13G22   29.84S WCI   7
LARAMIE        FAIR      17   2  51 SW22      29.73S WCI   0
CHEYENNE       FAIR      23   3  42 W17       29.78S WCI   9
TORRINGTON     FAIR      16   5  62 SE8       29.84R WCI   5
PINE BLUFFS    FAIR      28   9  43 W20G26    29.83R WCI  15

$$




USA.gov is the U.S. government's official web portal to all federal, state and local government web resources and services.